When you browse on this site, cookies collect data to enhance your experience and personalize the content and advertising you see.
Visit our Privacy Policy to learn more. By continuing to use the site, you agree to this use of cookies and data.
  • In Hungary
  • List of Countries
  • For 7 days
  • Water Temperature
  • Satellite Maps
  • Weather Map
  • News
  • Weather Widgets
  • user-avatar
    Login

    Hourly Weather Cerea

    Today, 18 January, Friday

    Time Temperature Precipitation Wind Pressure Humidity
    00:00 +7°C° 0.4 mm 1 mps 755 mmHg 91%
    01:00 +6°C° 0 mm 1 mps 755 mmHg 92%
    02:00 +6°C° 0.6 mm 1 mps 755 mmHg 93%
    03:00 +5°C° 0.6 mm 2 mps 755 mmHg 93%
    04:00 +5°C° 0.6 mm 2 mps 755 mmHg 94%
    05:00 +5°C° 0 mm 2 mps 755 mmHg 94%
    06:00 +5°C° 0 mm 2 mps 756 mmHg 94%
    07:00 +5°C° 0 mm 2 mps 756 mmHg 94%
    08:00 +5°C° 0 mm 2 mps 756 mmHg 90%
    09:00 +6°C° 0 mm 2 mps 757 mmHg 85%
    10:00 +7°C° 0 mm 1 mps 757 mmHg 81%
    11:00 +7°C° 0 mm 2 mps 757 mmHg 78%
    12:00 +8°C° 0 mm 3 mps 758 mmHg 75%
    13:00 +8°C° 0 mm 3 mps 758 mmHg 72%
    14:00 +7°C° 0.3 mm 4 mps 758 mmHg 71%
    15:00 +7°C° 0.3 mm 5 mps 758 mmHg 69%
    16:00 +5°C° 0.3 mm 7 mps 759 mmHg 67%
    17:00 +5°C° 0 mm 7 mps 759 mmHg 68%
    18:00 +5°C° 0 mm 6 mps 760 mmHg 68%
    19:00 +4°C° 0 mm 6 mps 760 mmHg 68%
    20:00 +4°C° 0.1 mm 6 mps 761 mmHg 68%
    21:00 +4°C° 0.1 mm 6 mps 761 mmHg 69%
    22:00 +4°C° 0.1 mm 6 mps 761 mmHg 69%
    23:00 +4°C° 0.4 mm 6 mps 761 mmHg 68%

    Tomorrow, 19 January, Saturday

    Time Temperature Precipitation Wind Pressure Humidity
    00:00 +3°C° 0.4 mm 6 mps 761 mmHg 67%
    01:00 +3°C° 0.4 mm 6 mps 761 mmHg 67%
    02:00 +3°C° 0.5 mm 5 mps 761 mmHg 66%
    03:00 +3°C° 0.5 mm 5 mps 761 mmHg 65%
    04:00 +2°C° 0.5 mm 5 mps 761 mmHg 63%
    05:00 +3°C° 0.2 mm 4 mps 761 mmHg 65%
    06:00 +3°C° 0.2 mm 4 mps 761 mmHg 67%
    07:00 +3°C° 0.2 mm 4 mps 761 mmHg 68%
    08:00 +3°C° 0.2 mm 3 mps 761 mmHg 67%
    09:00 +3°C° 0.2 mm 3 mps 761 mmHg 67%
    10:00 +4°C° 0.2 mm 2 mps 761 mmHg 66%
    11:00 +4°C° 0 mm 2 mps 761 mmHg 63%
    12:00 +5°C° 0 mm 2 mps 760 mmHg 60%
    13:00 +5°C° 0 mm 2 mps 760 mmHg 58%
    14:00 +6°C° 0 mm 1 mps 760 mmHg 59%
    15:00 +6°C° 0 mm 1 mps 759 mmHg 60%
    16:00 +6°C° 0 mm 1 mps 759 mmHg 60%
    17:00 +6°C° 0 mm 1 mps 759 mmHg 62%
    18:00 +5°C° 0 mm 1 mps 759 mmHg 64%
    19:00 +5°C° 0 mm 1 mps 760 mmHg 66%
    20:00 +5°C° 0 mm 1 mps 760 mmHg 67%
    21:00 +5°C° 0 mm 1 mps 760 mmHg 68%
    22:00 +5°C° 0 mm 1 mps 760 mmHg 69%
    23:00 +4°C° 0 mm 0 mps 760 mmHg 69%

    Day after tomorrow, 20 January, Sunday

    Time Temperature Precipitation Wind Pressure Humidity
    00:00 +3°C° 0 mm 0 mps 760 mmHg 69%
    01:00 +3°C° 0 mm 0 mps 760 mmHg 70%
    02:00 +3°C° 0 mm 0 mps 760 mmHg 71%
    03:00 +3°C° 0 mm 0 mps 760 mmHg 72%
    04:00 +3°C° 0 mm 0 mps 759 mmHg 73%
    05:00 +2°C° 0 mm 0 mps 759 mmHg 75%
    06:00 +3°C° 0 mm 1 mps 760 mmHg 77%
    07:00 +2°C° 0 mm 1 mps 760 mmHg 79%
    08:00 +2°C° 0 mm 0 mps 760 mmHg 77%
    09:00 +3°C° 0 mm 0 mps 760 mmHg 75%
    10:00 +3°C° 0 mm 0 mps 760 mmHg 72%
    11:00 +5°C° 0 mm 1 mps 760 mmHg 70%
    12:00 +6°C° 0 mm 1 mps 760 mmHg 67%
    13:00 +7°C° 0 mm 1 mps 759 mmHg 64%
    14:00 +7°C° 0 mm 1 mps 759 mmHg 65%
    15:00 +7°C° 0 mm 1 mps 759 mmHg 66%
    16:00 +6°C° 0 mm 0 mps 759 mmHg 68%
    17:00 +5°C° 0 mm 0 mps 760 mmHg 71%
    18:00 +4°C° 0 mm 0 mps 760 mmHg 74%
    19:00 +4°C° 0 mm 0 mps 761 mmHg 77%
    20:00 +3°C° 0 mm 0 mps 761 mmHg 78%
    21:00 +4°C° 0 mm 1 mps 761 mmHg 79%
    22:00 +4°C° 0 mm 1 mps 762 mmHg 80%
    23:00 +4°C° 0 mm 1 mps 762 mmHg 80%

    21 January, Monday

    Time Temperature Precipitation Wind Pressure Humidity
    00:00 +3°C° 0 mm 2 mps 762 mmHg 81%
    01:00 +2°C° 0 mm 2 mps 762 mmHg 81%
    02:00 +2°C° 0 mm 2 mps 762 mmHg 80%
    03:00 +2°C° 0 mm 2 mps 762 mmHg 79%
    04:00 +2°C° 0 mm 2 mps 762 mmHg 78%
    05:00 +2°C° 0 mm 2 mps 762 mmHg 76%
    06:00 +3°C° 0 mm 1 mps 763 mmHg 74%
    07:00 +3°C° 0 mm 1 mps 763 mmHg 72%
    08:00 +2°C° 0 mm 2 mps 763 mmHg 68%
    09:00 +3°C° 0 mm 2 mps 763 mmHg 64%
    10:00 +4°C° 0 mm 2 mps 764 mmHg 61%
    11:00 +5°C° 0 mm 2 mps 763 mmHg 58%
    12:00 +6°C° 0 mm 2 mps 763 mmHg 55%
    13:00 +7°C° 0 mm 3 mps 763 mmHg 52%
    14:00 +7°C° 0 mm 2 mps 763 mmHg 53%
    15:00 +6°C° 0 mm 2 mps 763 mmHg 54%
    16:00 +6°C° 0 mm 2 mps 763 mmHg 55%
    17:00 +5°C° 0 mm 2 mps 763 mmHg 57%
    18:00 +5°C° 0 mm 2 mps 763 mmHg 60%
    19:00 +4°C° 0 mm 2 mps 764 mmHg 63%
    20:00 +3°C° 0 mm 2 mps 764 mmHg 64%
    21:00 +3°C° 0 mm 2 mps 764 mmHg 64%
    22:00 +3°C° 0 mm 2 mps 765 mmHg 65%
    23:00 +2°C° 0 mm 2 mps 764 mmHg 66%

    22 January, Tuesday

    Time Temperature Precipitation Wind Pressure Humidity
    00:00 +2°C° 0 mm 2 mps 764 mmHg 66%
    01:00 +2°C° 0 mm 2 mps 764 mmHg 67%
    02:00 +3°C° 0 mm 1 mps 763 mmHg 67%
    03:00 +3°C° 0 mm 1 mps 763 mmHg 67%
    04:00 +2°C° 0 mm 1 mps 762 mmHg 67%
    05:00 +2°C° 0 mm 1 mps 762 mmHg 69%
    06:00 +2°C° 0 mm 1 mps 761 mmHg 71%
    07:00 +2°C° 0 mm 1 mps 761 mmHg 72%
    08:00 +2°C° 0 mm 1 mps 760 mmHg 69%
    09:00 +3°C° 0 mm 1 mps 760 mmHg 67%
    10:00 +4°C° 0 mm 1 mps 759 mmHg 64%
    11:00 +5°C° 0 mm 1 mps 758 mmHg 61%
    12:00 +5°C° 0 mm 1 mps 757 mmHg 57%
    13:00 +6°C° 0 mm 1 mps 756 mmHg 54%
    14:00 +6°C° 0 mm 1 mps 755 mmHg 54%
    15:00 +5°C° 0 mm 0 mps 754 mmHg 54%
    16:00 +5°C° 0 mm 0 mps 753 mmHg 54%
    17:00 +4°C° 0 mm 0 mps 753 mmHg 58%
    18:00 +3°C° 0 mm 0 mps 752 mmHg 61%
    19:00 +4°C° 0 mm 1 mps 752 mmHg 65%
    20:00 +3°C° 0 mm 1 mps 751 mmHg 65%
    21:00 +3°C° 0 mm 1 mps 750 mmHg 66%
    22:00 +3°C° 0 mm 1 mps 749 mmHg 66%
    23:00 +2°C° 0 mm 2 mps 749 mmHg 66%

    23 January, Wednesday

    Time Temperature Precipitation Wind Pressure Humidity
    00:00 +2°C° 0 mm 2 mps 748 mmHg 65%
    01:00 +2°C° 0 mm 2 mps 747 mmHg 64%
    02:00 +2°C° 0.2 mm 2 mps 746 mmHg 66%
    03:00 +1°C° 0.2 mm 3 mps 745 mmHg 67%
    04:00 +1°C° 0.2 mm 3 mps 744 mmHg 69%
    05:00 +1°C° 1.1 mm 3 mps 743 mmHg 71%
    06:00 0°C° 1.1 mm 4 mps 742 mmHg 72%
    07:00 0°C° 1.1 mm 4 mps 742 mmHg 74%
    08:00 0°C° 1.2 mm 4 mps 741 mmHg 78%
    09:00 0°C° 1.2 mm 4 mps 741 mmHg 81%
    10:00 0°C° 1.2 mm 4 mps 740 mmHg 84%
    11:00 +1°C° 1.1 mm 3 mps 740 mmHg 87%
    12:00 +1°C° 1.1 mm 3 mps 739 mmHg 91%
    13:00 +2°C° 1.1 mm 2 mps 738 mmHg 95%
    14:00 +1°C° 0.6 mm 2 mps 737 mmHg 96%
    15:00 +1°C° 0.6 mm 2 mps 737 mmHg 97%
    16:00 +1°C° 0.6 mm 2 mps 736 mmHg 98%
    17:00 +1°C° 0.2 mm 2 mps 736 mmHg 97%
    18:00 0°C° 0.2 mm 3 mps 735 mmHg 97%
    19:00 0°C° 0.2 mm 3 mps 735 mmHg 96%
    20:00 +1°C° 0.1 mm 2 mps 735 mmHg 95%
    21:00 -1°C° 0.1 mm 2 mps 734 mmHg 93%
    22:00 -1°C° 0.1 mm 2 mps 734 mmHg 92%
    23:00 -2°C° 0 mm 2 mps 734 mmHg 93%
    Show more